Погода в Русских Шоях

Россия / Республика Марий Эл     56°40′08″N   49°08′16″E
темп.,
°C
ветер,
м/с
пор.,
м/с
влажн.,
%
обл.,
%
осадки,
мм/ч
давл.,
гПа
погр.,
м
10 августа, ср
ср1000:00+17ссз119285 0.3 101913
03:00+17в119362 0.4 101811
06:00+19з2389100 0.0 1018109
09:00+20ссз358297 0.0 1019410
12:00+23ссз456470 0.0 1019881
15:00+23ссз346256 0.0 10191047
18:00+20сз3676100 0.4 1019215
21:00+17сз3587100 0.8 1019103
11 августа, чт
чт1100:00+16ссв358264 0.0 1020127
03:00+14ссв3682100 0.0 1021219
06:00+15с377899 0.0 1022312
09:00+18с46591 0.0 1023686
12:00+21с44500 0.0 10231339
15:00+21ссз344911 0.0 10231723
18:00+19ссз2464100 0.0 1022103
21:00+16з226590 0.0 102314
12 августа, пт
пт1200:00+17зюз3559100 0.0 1023104
03:00+14з3571100 0.0 102369
06:00+15з49747 0.0 1023255
09:00+20з5759100 0.0 1023654
12:00+22з574817 0.0 10221425
15:00+23зсз674439 0.0 10211489
18:00+20з37625 0.0 1020201
21:00+16з48720 0.0 1021125
13 августа, сб
сб1300:00+15з410730 0.0 1021160
03:00+14з49775 0.0 1021150
06:00+16зсз37785 0.0 1021166
09:00+22сз45630 0.0 1021670
12:00+24сз45505 0.0 10211499
15:00+23ссз465899 0.0 1021634
18:00+21сз2468100 0.0 102195
21:00+16ссв2275100 0.0 102221
14 августа, вс
вс1400:00+14св22797 0.0 102311
03:00+12св22835 0.0 102312
06:00+14всв23765 0.0 102487
09:00+19всв23565 0.0 1024552
12:00+22св224443 0.0 10231370
15:00+23св214172 0.0 10231460
18:00+20всв225697 0.0 102226
21:00+15вюв226370 0.0 102311